Flag Weather past 2 weeks in Kitchener, Ontario, Canada

Now
43 °F

Light rain. Mostly cloudy.


Feels Like: 40 °F
Forecast: N/A
Wind: 5 mph from Northeast

Location: Waterloo Well

Current Time: Oct 31, 2014 at 5:41:31 PM

Latest Report: Oct 31, 2014 at 5:00 PM


Visibility: 9 mi

Pressure: 29.91 "Hg

Humidity: 87%

Dew point: 39 °F

Location of KitchenerLocation

Historic Weather in Kitchener — Graph

°F

Kitchener temperature yesterday

Maximum temperature yesterday: 45 °F (at 1:00 PM)
Minimum temperature yesterday: 36 °F (at 2:00 AM)
Average temperature yesterday: 41 °F

Past Weeks' High & Low Weather Summary

 TemperatureHumidityPressure
High66 °F (Oct 28, 11:00 AM)100% (Oct 17, 7:00 AM)30.29 "Hg (Oct 17, 7:00 AM)
Low27 °F (Oct 24, 7:00 AM)48% (Oct 24, 5:00 PM)29.49 "Hg (Oct 17, 3:00 PM)
Average46 °F83%29.90 "Hg
* Reported Oct 16 4:00 PM — Oct 31 4:03 PM, Kitchener, Weather by CustomWeather, © 2014

Note: Actual official high and low records may vary slightly from our data, if they occured in-between our weather recording intervals... More about our weather records

Advertising

Kitchener weather history for previous 24 hours

 ConditionsComfort  
Time TempWeatherWind HumidityBarometerVisibility
4:03 PM
Oct 31
43 °FLight rain. More clouds than sun.3 mph87%29.90 "Hg9 mi
3:00 PM43 °FLight rain. Cloudy.5 mph93%29.90 "Hg9 mi
2:00 PM43 °FLight rain. Overcast.6 mph87%29.90 "Hg9 mi
1:00 PM43 °FLight rain. Cloudy.7 mph87%29.91 "Hg9 mi
12:00 PM43 °FLight rain. Mostly cloudy.9 mph87%29.93 "Hg9 mi
11:00 AM41 °FLight rain. Overcast.8 mph93%29.93 "Hg9 mi
10:00 AM39 °FLight rain. More clouds than sun.9 mph100%29.94 "Hg7 mi
9:52 AM39 °FLight rain. More clouds than sun.8 mph93%29.94 "Hg7 mi
9:00 AM39 °FLight rain. Mostly cloudy.9 mph93%29.95 "Hg7 mi
8:00 AM39 °FLight rain. Mostly cloudy.8 mph93%29.94 "Hg8 mi
7:00 AM39 °FLight rain. Overcast.3 mph93%29.94 "Hg9 mi
6:00 AM39 °FLight rain. Mostly cloudy.3 mph93%29.95 "Hg9 mi
5:00 AM39 °FLight rain. Mostly cloudy.3 mph93%29.96 "Hg8 mi
4:00 AM39 °FLight rain. Overcast.5 mph93%29.97 "Hg9 mi
3:00 AM39 °FLight rain. Mostly cloudy.2 mph93%29.98 "Hg9 mi
2:00 AM39 °FLight rain. Overcast.2 mph93%29.99 "Hg9 mi
1:00 AM39 °FLight rain. Overcast.5 mph93%30.01 "Hg9 mi
12:51 AM39 °FLight rain. Overcast.3 mph93%30.01 "Hg9 mi
12:00 AM39 °FOvercast.No wind93%30.01 "Hg9 mi
11:00 PM
Oct 30
41 °FPassing clouds.2 mph81%30.03 "Hg9 mi
10:00 PM41 °FPassing clouds.6 mph81%30.05 "Hg9 mi
9:00 PM39 °FClear.5 mph87%30.06 "Hg9 mi
8:00 PM43 °FOvercast.9 mph71%30.06 "Hg9 mi
7:00 PM41 °FOvercast.6 mph76%30.07 "Hg9 mi
6:00 PM43 °FPartly sunny.7 mph71%30.06 "Hg9 mi
5:00 PM45 °FOvercast.6 mph66%30.06 "Hg9 mi
Weather by CustomWeather, © 2014

See weather overviewHow to use our weather pages